Lid_Strength_Index
4 4 4 4 4 4 4 4 4 4 4 4 4 3 2 2 3 2 4 2 1 -2 0 3 4 4 3 4 3 3 7 8 7 7 7 4 6 4 3 6 5 4 5 3 2
4 4 4 4 4 4 4 5 5 4 4 4 4 3 2 3 3 4 -1 -1 -3 -3 3 4 5 4 5 5 4 5 7 7 5 5 6 5 5 4 4 5 5 5 3 2 2
4 4 4 4 4 4 4 5 5 4 4 3 3 3 2 3 3 3 -1 -1 -1 -1 2 2 3 4 6 5 5 5 7 5 5 4 4 5 5 4 5 6 5 7 4 3 3
4 4 4 4 4 5 5 5 4 3 3 3 2 3 2 3 7 3 -2 -2 -2 2 2 3 5 6 6 6 5 7 5 5 4 4 4 5 4 5 4 4 3 4 3 3 3
4 4 4 4 4 4 4 4 3 3 3 2 2 2 3 4 3 1 -3 -1 3 4 3 5 5 5 7 6 5 6 5 5 5 4 4 4 5 5 4 3 2 3 3 3 3
4 4 4 4 3 3 3 3 3 3 3 3 2 2 3 5 0 1 2 2 3 3 4 4 4 4 5 6 6 4 5 5 5 5 4 5 5 4 4 3 3 3 4 3 3
4 4 4 4 4 3 3 3 3 3 3 2 2 1 3 3 0 1 2 2 2 3 4 3 3 5 4 5 4 5 6 5 5 5 5 4 6 6 4 3 3 3 3 4 3
4 4 5 4 4 4 4 4 4 2 2 2 1 1 4 1 -0 1 1 2 2 2 3 2 3 4 4 3 4 6 7 8 6 5 5 5 8 5 4 4 4 4 4 3 3
4 4 5 5 4 4 4 5 4 1 2 1 1 2 5 0 2 1 2 3 3 3 2 2 3 4 4 7 8 7 9 8 7 5 5 6 7 5 3 4 4 4 4 4 3
4 5 5 4 4 5 5 5 2 1 1 -0 1 4 3 4 2 2 1 1 3 3 3 4 4 6 6 7 10 9 8 8 8 6 6 6 6 5 4 4 4 4 4 4 4
3 3 5 5 4 4 4 1 3 3 2 4 3 4 3 2 1 2 2 2 2 4 6 5 7 8 7 6 6 7 7 8 7 5 6 8 7 6 5 4 5 5 4 4 4
3 3 5 4 5 5 3 2 2 2 4 2 2 2 2 2 5 3 1 4 4 6 5 6 8 6 5 6 6 7 8 8 7 6 6 8 7 6 6 6 5 5 5 4 4
4 3 4 5 5 3 1 1 -0 1 4 4 3 3 3 3 5 4 3 3 5 6 6 7 7 6 6 6 7 7 8 8 8 6 6 7 10 10 7 6 6 4 4 4 4
5 4 3 4 3 1 1 -0 -0 0 7 6 6 4 3 3 5 3 2 3 5 6 6 6 6 7 6 7 7 8 6 7 7 8 10 7 13 12 10 10 8 6 5 5 4
6 4 3 4 3 3 1 -1 -0 1 15 6 6 2 3 4 4 4 2 3 6 6 6 7 7 6 7 7 6 7 6 6 7 8 8 8 11 12 9 11 8 6 5 5 4
6 4 4 3 2 0 0 -0 1 8 14 8 5 5 5 5 4 4 4 3 3 5 6 6 4 5 6 5 6 5 6 7 7 8 11 9 10 12 11 9 7 5 5 4 4
6 6 5 2 3 0 0 2 8 11 6 8 7 5 6 6 6 5 6 6 7 8 8 7 6 5 5 7 5 6 8 11 13 14 13 8 9 11 8 7 5 6 5 4 3
6 6 4 1 1 0 1 5 11 8 7 5 6 6 7 6 6 6 6 7 5 6 8 9 10 6 5 6 8 7 8 11 15 14 13 8 11 10 6 5 4 4 4 4 4
7 2 1 -0 -0 1 4 9 9 7 6 7 6 7 7 6 6 6 6 7 6 5 8 9 9 6 6 6 6 8 9 7 10 9 11 10 9 7 5 5 5 5 4 4 4
6 3 2 -0 -1 1 6 9 7 5 5 5 8 7 8 7 7 7 7 6 6 5 5 7 10 6 6 5 5 7 6 10 9 13 14 13 11 11 7 6 5 5 5 4 3
3 4 1 -1 -0 4 8 7 6 4 4 6 7 7 7 7 7 7 7 6 5 5 5 6 7 8 6 7 8 7 8 8 8 9 13 13 11 6 7 6 5 5 4 4 4
2 6 1 -0 5 5 6 5 6 5 4 5 5 6 7 7 7 7 7 6 5 5 7 5 6 10 8 6 5 6 7 7 10 11 10 10 11 5 5 5 4 4 4 4 4
4 4 0 1 7 7 5 5 5 5 5 5 6 5 5 6 8 7 7 5 4 5 6 6 7 11 10 8 6 7 7 7 7 8 11 12 10 5 5 5 4 4 4 3 3
3 6 3 3 3 5 6 6 6 4 5 4 5 5 6 6 6 7 7 6 5 5 5 5 7 9 12 11 8 9 8 7 7 10 10 10 9 7 6 5 5 4 4 3 3
3 5 4 6 5 5 5 6 6 6 5 4 6 6 6 8 7 7 6 6 5 6 5 6 9 8 8 7 7 8 8 8 8 8 10 9 8 7 6 5 4 4 4 4 3
5 5 4 5 5 5 6 6 7 6 5 6 6 5 5 7 7 7 6 6 7 5 6 5 9 8 9 7 7 8 8 7 7 7 8 8 8 5 4 4 4 4 4 4 4
2 1 4 5 5 6 6 6 6 5 5 4 5 5 6 5 5 5 4 5 5 6 7 7 8 10 12 8 8 11 8 7 7 7 7 9 7 5 5 5 4 4 4 4 4